Location: Mactaquac Provincial Park
(45.9573°N, 66.8897°W)
Time: 02:06:38
(UTC-03:00)

Cosmos 1867 - Visible Passes

Search period start: 26 July 2014 00:00
Search period end: 05 August 2014 00:00
Orbit: 777 x 799 km, 65.0° (Epoch: 25 July)

Date Brightness Start Highest point End Pass type
(mag) Time Alt. Az. Time Alt. Az. Time Alt. Az.
26 Jul 5.9 01:33:08 10° ESE 01:33:08 10° ESE 01:33:45 10° E visible
26 Jul 3.6 03:13:47 43° S 03:15:31 69° ESE 03:20:58 10° NE visible
26 Jul 5.1 04:54:59 10° W 04:59:36 27° NW 05:04:14 10° NNE visible
27 Jul 3.9 02:43:03 46° SSE 02:44:00 52° ESE 02:49:17 10° NE visible
27 Jul 4.8 04:23:43 14° W 04:27:49 33° NW 04:32:46 10° NNE visible
28 Jul 4.3 02:12:17 38° ESE 02:12:30 39° ESE 02:17:32 10° NE visible
28 Jul 4.5 03:52:56 21° WSW 03:56:05 41° NW 04:01:16 10° NNE visible
29 Jul 4.8 01:41:28 29° ESE 01:41:28 29° ESE 01:45:41 10° NE visible
29 Jul 4.1 03:22:08 32° WSW 03:24:24 52° NW 03:29:45 10° NNE visible
29 Jul 5.8 05:05:58 10° WNW 05:09:16 16° NNW 05:12:35 10° NNE visible
30 Jul 5.2 01:10:38 21° E 01:10:38 21° E 01:13:42 10° ENE visible
30 Jul 3.7 02:51:17 47° WSW 02:52:44 67° NW 02:58:12 10° NNE visible
30 Jul 5.7 04:33:36 10° WNW 04:37:22 19° NNW 04:41:09 10° NNE visible
31 Jul 5.6 00:39:45 14° E 00:39:45 14° E 00:41:27 10° ENE visible
31 Jul 3.4 02:20:24 68° SW 02:21:07 86° NW 02:26:38 10° NE visible
31 Jul 5.5 04:01:20 10° W 04:05:31 22° NNW 04:09:42 10° NNE visible
01 Aug 3.5 01:49:28 73° SE 01:49:33 73° ESE 01:55:01 10° NE visible
01 Aug 5.3 03:30:07 14° W 03:33:41 26° NW 03:38:15 10° NNE visible
01 Aug 6.2 05:17:46 10° NNW 05:19:17 11° NNW 05:20:48 10° N visible
02 Aug 3.9 01:18:30 53° E 01:18:30 53° E 01:23:21 10° NE visible
02 Aug 5.0 02:59:09 21° W 03:01:54 32° NW 03:06:46 10° NNE visible
02 Aug 6.1 04:45:10 10° NW 04:47:17 12° NNW 04:49:25 10° N visible
03 Aug 4.4 00:47:30 38° E 00:47:30 38° E 00:51:37 10° NE visible
03 Aug 4.6 02:28:08 29° W 02:30:09 39° NW 02:35:17 10° NNE visible
03 Aug 6.1 04:12:39 10° NW 04:15:19 14° NNW 04:18:00 10° N visible
04 Aug 4.8 00:16:26 27° E 00:16:26 27° E 00:19:48 10° NE visible
04 Aug 4.3 01:57:04 40° W 01:58:27 49° NW 02:03:46 10° NNE visible
04 Aug 6.0 03:40:11 10° WNW 03:43:23 15° NNW 03:46:35 10° NNE visible
04 Aug 5.1 23:45:18 20° E 23:45:18 20° E 23:47:51 10° ENE visible
